Weather History for Sheridan, WY

Change the Weather History Date:

Tuesday, March 4, 2014

  Actual Average Record
Temperature  
Mean Temperature 36 °F 31 °F  
Max Temperature 46 °F 44 °F 69 °F (2000)
Min Temperature 25 °F 18 °F -17 °F (1923)
Degree Days  
Heating Degree Days 29 34  
Month to date heating degree days 211 137  
Since 1 July heating degree days 5961 5672  
Cooling Degree Days 0 0  
Month to date cooling degree days 0 0  
Year to date cooling degree days 0 0  
Moisture  
Dew Point 26 °F    
Average Humidity 69    
Maximum Humidity 85    
Minimum Humidity 53    
Precipitation  
Precipitation 0.00 in 0.03 in 0.24 in (1931)
Month to date precipitation 0.13 0.09  
Year to date precipitation 1.98 1.19  
Sea Level Pressure  
Sea Level Pressure 29.93 in    
Wind  
Wind Speed 7 mph (West)    
Max Wind Speed 23 mph    
Max Gust Speed 27 mph    
Visibility 10 miles    
Events      
T = Trace of Precipitation, MM = Missing Value Source: NWS Daily Summary

Daily Weather History Graph

Daily Weather History Graph

Search for Another Location

Airport:

Trip Planner

Search our weather history database for the weather conditions in past years. The results will help you decide how hot, cold, wet, or windy it might be!

Date:

Astronomy

Mar. 04, 2014 Rise Set
Actual Time 6:40 AM MST 5:59 PM MST
Civil Twilight 6:10 AM MST 6:28 PM MST
Nautical Twilight 5:37 AM MST 7:02 PM MST
Astronomical Twilight 5:03 AM MST 7:36 PM MST
Moon 8:17 AM MST (3/4) 10:21 PM MST (3/4)
Length of Visible Light 12h 18m
Length of Day
11h 19m
Waxing Crescent, 15% of the Moon is Illuminated
Mar 4
Waxing Crescent
Mar 8
First Quarter
Mar 16
Full
Mar 23
Last Quarter
Mar 30
New

Hourly Weather History & Observations

Time (MST) Temp. Windchill Dew Point Humidity Pressure Visibility Wind Dir Wind Speed Gust Speed Precip Events Conditions
12:53 AM 28.9 °F 22.8 °F 25.0 °F 85% 29.85 in 10.0 mi South 5.8 mph - N/A   Partly Cloudy
1:53 AM 28.9 °F 25.2 °F 25.0 °F 85% 29.84 in 10.0 mi North 3.5 mph - N/A   Overcast
2:53 AM 32.0 °F 24.2 °F 26.1 °F 79% 29.85 in 10.0 mi SSE 9.2 mph - N/A   Clear
3:53 AM 34.0 °F 31.0 °F 26.1 °F 73% 29.86 in 10.0 mi Variable 3.5 mph - N/A   Clear
4:53 AM 32.0 °F 26.4 °F 26.1 °F 79% 29.88 in 10.0 mi SW 5.8 mph - N/A   Mostly Cloudy
5:53 AM 39.0 °F 29.6 °F 30.0 °F 70% 29.84 in 10.0 mi WSW 18.4 mph - N/A   Overcast
6:00 AM 39.0 °F 29.3 °F 30.0 °F 70% 29.79 in 10.0 mi WSW 19.6 mph - N/A   Overcast
6:53 AM 41.0 °F 32.8 °F 28.0 °F 60% 29.83 in 10.0 mi WSW 16.1 mph - N/A   Overcast
7:53 AM 37.9 °F 33.5 °F 28.9 °F 70% 29.88 in 10.0 mi NNW 5.8 mph - N/A   Overcast
8:53 AM 39.0 °F 33.4 °F 28.0 °F 65% 29.90 in 10.0 mi NNW 8.1 mph - N/A   Clear
9:53 AM 42.1 °F 39.2 °F 28.0 °F 58% 29.91 in 10.0 mi WNW 4.6 mph - N/A   Scattered Clouds
10:53 AM 43.0 °F 38.2 °F 28.0 °F 56% 29.91 in 10.0 mi North 8.1 mph - N/A   Clear
11:53 AM 43.0 °F 38.8 °F 28.0 °F 56% 29.91 in 10.0 mi NNW 6.9 mph - N/A   Partly Cloudy
12:53 PM 43.0 °F 35.4 °F 27.0 °F 53% 29.92 in 10.0 mi NW 16.1 mph - N/A   Scattered Clouds
1:53 PM 44.1 °F - 28.9 °F 55% 29.93 in 10.0 mi Calm Calm - N/A   Scattered Clouds
2:53 PM 39.9 °F 33.9 °F 28.9 °F 65% 29.95 in 10.0 mi WSW 9.2 mph - N/A   Overcast
3:53 PM 39.9 °F 34.5 °F 28.0 °F 63% 29.96 in 10.0 mi West 8.1 mph - N/A   Partly Cloudy
4:53 PM 39.0 °F 34.8 °F 28.0 °F 65% 29.99 in 10.0 mi WNW 5.8 mph - N/A   Clear
5:53 PM 33.1 °F 26.9 °F 26.1 °F 75% 30.01 in 10.0 mi West 6.9 mph - N/A   Partly Cloudy
6:53 PM 32.0 °F - 25.0 °F 75% 30.02 in 10.0 mi Calm Calm - N/A   Clear
7:53 PM 33.1 °F 27.7 °F 25.0 °F 72% 30.04 in 10.0 mi SSW 5.8 mph - N/A   Partly Cloudy
8:53 PM 30.9 °F 26.2 °F 24.1 °F 76% 30.04 in 10.0 mi South 4.6 mph - N/A   Mostly Cloudy
9:53 PM 30.9 °F - 23.0 °F 72% 30.04 in 10.0 mi Calm Calm - N/A   Partly Cloudy
10:53 PM 26.1 °F 21.9 °F 19.0 °F 75% 30.06 in 10.0 mi WNW 3.5 mph - N/A   Clear
11:53 PM 28.9 °F 23.9 °F 18.0 °F 64% 30.04 in 10.0 mi South 4.6 mph - N/A   Clear